QPF
0.00 0.00 0.00 0.00 0.00 0.00 0.00 0.00 0.00 0.00 0.00 0.00 0.00 0.00 0.00 0.00 0.00 0.00 0.00 0.00 0.00 0.00 0.00 0.00 0.00 0.00 0.00 0.00 0.00 0.00 0.00 0.00 0.00 0.00 0.00 0.00 0.00 0.00 0.00 0.00 0.00 0.00 0.00
0.00 0.00 0.00 0.00 0.00 0.00 0.00 0.00 0.00 0.00 0.00 0.00 0.00 0.00 0.00 0.00 0.00 0.00 0.00 0.00 0.00 0.00 0.00 0.00 0.00 0.00 0.00 0.00 0.00 0.00 0.00 0.00 0.00 0.00 0.00 0.00 0.00 0.00 0.00 0.00 0.00 0.00 0.00
0.00 0.00 0.00 0.00 0.00 0.00 0.00 0.00 0.00 0.00 0.00 0.00 0.00 0.00 0.00 0.00 0.00 0.00 0.00 0.00 0.00 0.00 0.00 0.00 0.00 0.00 0.00 0.00 0.00 0.00 0.00 0.00 0.00 0.00 0.00 0.00 0.00 0.00 0.00 0.00 0.00 0.00 0.00
0.00 0.00 0.00 0.00 0.00 0.00 0.00 0.00 0.00 0.00 0.00 0.00 0.00 0.00 0.00 0.00 0.00 0.00 0.00 0.00 0.00 0.00 0.00 0.00 0.00 0.00 0.00 0.00 0.00 0.00 0.00 0.00 0.00 0.00 0.00 0.00 0.00 0.00 0.00 0.00 0.00 0.00 0.00
0.00 0.00 0.00 0.00 0.00 0.00 0.00 0.00 0.00 0.00 0.00 0.00 0.01 0.01 0.00 0.00 0.00 0.00 0.00 0.00 0.00 0.00 0.00 0.00 0.00 0.00 0.00 0.00 0.00 0.00 0.00 0.00 0.00 0.00 0.00 0.00 0.00 0.00 0.00 0.00 0.00 0.00 0.00
0.00 0.00 0.00 0.00 0.00 0.00 0.00 0.00 0.00 0.01 0.01 0.01 0.00 0.00 0.00 0.00 0.00 0.00 0.00 0.00 0.00 0.00 0.00 0.00 0.00 0.00 0.00 0.00 0.00 0.00 0.00 0.00 0.00 0.00 0.00 0.00 0.00 0.01 0.02 0.02 0.00 0.00 0.00
0.00 0.00 0.00 0.00 0.00 0.00 0.00 0.00 0.00 0.00 0.00 0.00 0.00 0.00 0.00 0.00 0.00 0.00 0.00 0.00 0.00 0.00 0.00 0.00 0.00 0.00 0.00 0.00 0.00 0.00 0.00 0.00 0.00 0.00 0.00 0.00 0.00 0.01 0.03 0.04 0.03 0.01 0.00
0.00 0.00 0.00 0.00 0.00 0.00 0.00 0.00 0.00 0.00 0.00 0.00 0.00 0.00 0.00 0.00 0.00 0.00 0.00 0.00 0.00 0.00 0.00 0.00 0.00 0.00 0.00 0.00 0.00 0.00 0.00 0.00 0.00 0.00 0.00 0.00 0.00 0.04 0.42 0.56 0.15 0.04 0.01
0.00 0.00 0.00 0.00 0.00 0.00 0.00 0.00 0.00 0.00 0.00 0.00 0.00 0.00 0.00 0.00 0.00 0.00 0.00 0.00 0.00 0.00 0.00 0.00 0.00 0.00 0.00 0.00 0.00 0.00 0.00 0.00 0.00 0.00 0.00 0.00 0.00 0.02 0.12 0.04 0.01 0.00 0.01
0.00 0.00 0.00 0.00 0.00 0.00 0.00 0.00 0.00 0.00 0.00 0.00 0.00 0.00 0.00 0.00 0.00 0.00 0.00 0.00 0.00 0.00 0.00 0.00 0.00 0.00 0.00 0.00 0.00 0.00 0.00 0.00 0.00 0.00 0.00 0.01 0.05 0.05 0.05 0.04 0.01 0.00 0.00
0.00 0.00 0.00 0.00 0.00 0.00 0.00 0.00 0.00 0.00 0.00 0.00 0.00 0.00 0.00 0.00 0.00 0.00 0.00 0.00 0.00 0.00 0.00 0.00 0.00 0.00 0.00 0.00 0.00 0.00 0.00 0.00 0.00 0.00 0.00 0.04 0.08 0.11 0.11 0.07 0.01 0.00 0.02
0.00 0.00 0.00 0.00 0.00 0.00 0.00 0.00 0.00 0.00 0.00 0.00 0.00 0.00 0.00 0.00 0.00 0.00 0.00 0.00 0.00 0.00 0.00 0.00 0.00 0.00 0.00 0.00 0.00 0.00 0.00 0.00 0.00 0.00 0.00 0.02 0.03 0.03 0.05 0.06 0.03 0.01 0.01
0.00 0.00 0.00 0.00 0.00 0.00 0.00 0.00 0.00 0.00 0.00 0.00 0.00 0.00 0.00 0.00 0.00 0.00 0.00 0.00 0.00 0.00 0.00 0.00 0.00 0.00 0.00 0.00 0.00 0.00 0.00 0.00 0.00 0.00 0.00 0.00 0.00 0.00 0.00 0.01 0.03 0.03 0.02
0.00 0.00 0.00 0.00 0.00 0.00 0.00 0.00 0.00 0.00 0.00 0.00 0.00 0.00 0.00 0.00 0.00 0.00 0.00 0.00 0.00 0.00 0.00 0.00 0.00 0.00 0.00 0.00 0.00 0.00 0.00 0.00 0.00 0.00 0.00 0.00 0.00 0.00 0.00 0.00 0.00 0.02 0.03
0.00 0.00 0.00 0.00 0.00 0.00 0.00 0.00 0.00 0.00 0.00 0.00 0.00 0.00 0.00 0.00 0.00 0.00 0.00 0.00 0.00 0.00 0.00 0.00 0.00 0.00 0.00 0.00 0.00 0.00 0.00 0.00 0.00 0.00 0.00 0.01 0.00 0.00 0.00 0.00 0.00 0.00 0.02
0.00 0.00 0.00 0.00 0.00 0.00 0.00 0.00 0.00 0.00 0.00 0.00 0.00 0.00 0.00 0.00 0.00 0.00 0.00 0.00 0.00 0.00 0.00 0.00 0.00 0.00 0.00 0.00 0.00 0.00 0.00 0.00 0.00 0.00 0.00 0.00 0.00 0.00 0.00 0.00 0.00 0.02 0.03
0.00 0.00 0.00 0.00 0.01 0.00 0.00 0.00 0.00 0.00 0.00 0.00 0.00 0.00 0.00 0.00 0.00 0.00 0.00 0.00 0.00 0.00 0.00 0.00 0.00 0.00 0.00 0.00 0.00 0.00 0.00 0.00 0.00 0.00 0.00 0.00 0.00 0.00 0.00 0.01 0.01 0.01 0.04
0.00 0.00 0.00 0.00 0.01 0.00 0.01 0.00 0.00 0.00 0.00 0.00 0.00 0.00 0.00 0.00 0.00 0.00 0.00 0.00 0.00 0.00 0.00 0.00 0.00 0.00 0.00 0.00 0.00 0.00 0.00 0.00 0.00 0.00 0.00 0.00 0.00 0.00 0.00 0.00 0.01 0.01 0.02
0.00 0.00 0.00 0.00 0.00 0.00 0.00 0.00 0.00 0.00 0.00 0.00 0.00 0.00 0.00 0.00 0.00 0.00 0.00 0.00 0.00 0.00 0.00 0.00 0.00 0.00 0.00 0.00 0.00 0.00 0.00 0.00 0.00 0.00 0.00 0.00 0.00 0.00 0.00 0.00 0.00 0.00 0.00
0.00 0.01 0.00 0.00 0.00 0.00 0.00 0.00 0.00 0.00 0.00 0.00 0.00 0.00 0.00 0.00 0.00 0.00 0.00 0.00 0.00 0.00 0.00 0.00 0.00 0.00 0.00 0.00 0.00 0.00 0.00 0.00 0.00 0.00 0.00 0.00 0.00 0.00 0.00 0.00 0.00 0.00 0.00
0.00 0.01 0.00 0.00 0.00 0.00 0.00 0.00 0.00 0.00 0.00 0.00 0.00 0.00 0.00 0.00 0.00 0.00 0.00 0.00 0.00 0.00 0.00 0.00 0.00 0.00 0.00 0.00 0.00 0.00 0.00 0.00 0.00 0.00 0.00 0.00 0.00 0.00 0.00 0.00 0.00 0.00 0.00
0.00 0.00 0.00 0.00 0.00 0.00 0.00 0.00 0.00 0.00 0.00 0.00 0.00 0.00 0.00 0.00 0.00 0.00 0.00 0.00 0.00 0.00 0.00 0.00 0.00 0.00 0.00 0.00 0.00 0.00 0.00 0.00 0.00 0.00 0.00 0.00 0.00 0.00 0.00 0.00 0.00 0.00 0.01
0.01 0.00 0.00 0.00 0.00 0.00 0.00 0.00 0.00 0.00 0.00 0.00 0.00 0.00 0.00 0.00 0.00 0.00 0.00 0.00 0.00 0.00 0.00 0.00 0.00 0.00 0.00 0.00 0.00 0.00 0.00 0.00 0.00 0.00 0.00 0.00 0.00 0.00 0.00 0.00 0.00 0.00 0.00
0.00 0.01 0.01 0.00 0.00 0.00 0.00 0.00 0.00 0.00 0.00 0.00 0.00 0.00 0.00 0.00 0.00 0.00 0.00 0.00 0.00 0.00 0.00 0.00 0.00 0.00 0.00 0.00 0.00 0.00 0.00 0.00 0.00 0.00 0.00 0.00 0.00 0.00 0.00 0.00 0.00 0.00 0.00
0.00 0.00 0.01 0.01 0.00 0.00 0.00 0.00 0.00 0.00 0.00 0.00 0.00 0.00 0.00 0.00 0.00 0.00 0.00 0.00 0.00 0.00 0.00 0.00 0.00 0.00 0.00 0.00 0.00 0.00 0.00 0.00 0.00 0.00 0.00 0.00 0.00 0.00 0.00 0.00 0.00 0.00 0.00
0.07 0.01 0.00 0.02 0.00 0.00 0.00 0.00 0.00 0.00 0.00 0.00 0.00 0.00 0.00 0.00 0.00 0.00 0.00 0.00 0.00 0.00 0.00 0.00 0.00 0.00 0.00 0.00 0.00 0.00 0.00 0.00 0.00 0.00 0.00 0.00 0.00 0.00 0.00 0.00 0.00 0.00 0.00
MSLP
1014.47 1014.25 1014.26 1014.39 1014.59 1014.74 1014.94 1015.13 1015.39 1015.56 1015.63 1015.78 1015.93 1015.99 1016.06 1016.12 1016.17 1016.15 1016.18 1016.13 1016.08 1016.10 1016.05 1015.88 1015.79 1015.77 1015.67 1015.51 1015.37 1015.39 1015.38 1015.34 1015.26 1015.09 1014.94 1014.93 1015.04 1015.11 1014.98 1014.84 1014.70 1014.89 1015.02
1013.85 1014.25 1014.14 1014.40 1014.60 1014.82 1015.05 1015.37 1015.61 1015.75 1015.84 1016.00 1016.18 1016.24 1016.30 1016.36 1016.41 1016.41 1016.39 1016.31 1016.26 1016.22 1016.07 1016.04 1015.98 1015.82 1015.74 1015.65 1015.57 1015.44 1015.40 1015.36 1015.29 1015.14 1014.92 1014.81 1014.81 1014.82 1015.06 1015.02 1014.64 1014.90 1015.08
1014.04 1014.05 1014.20 1014.60 1014.69 1014.97 1015.29 1015.51 1015.80 1015.92 1015.98 1016.18 1016.28 1016.42 1016.44 1016.45 1016.47 1016.51 1016.50 1016.44 1016.35 1016.27 1016.21 1016.17 1016.14 1016.02 1015.95 1015.77 1015.65 1015.48 1015.36 1015.31 1015.20 1015.03 1014.80 1014.94 1014.77 1014.56 1014.82 1015.02 1015.03 1014.78 1014.97
1013.66 1014.06 1014.39 1014.70 1014.84 1015.13 1015.45 1015.68 1015.84 1016.05 1016.13 1016.26 1016.34 1016.53 1016.59 1016.55 1016.56 1016.55 1016.61 1016.60 1016.47 1016.36 1016.27 1016.22 1016.16 1016.08 1015.92 1015.80 1015.66 1015.59 1015.39 1015.28 1015.04 1014.82 1014.69 1014.69 1014.50 1013.89 1014.28 1014.57 1014.67 1014.72 1014.84
1013.83 1014.21 1014.45 1014.78 1014.97 1015.23 1015.63 1015.82 1015.98 1016.08 1016.18 1016.33 1016.41 1016.71 1016.80 1016.80 1016.87 1016.98 1016.96 1017.00 1016.90 1016.84 1016.71 1016.60 1016.44 1016.28 1016.09 1015.95 1015.73 1015.56 1015.42 1015.22 1015.02 1014.67 1014.60 1014.37 1014.29 1013.68 1014.00 1014.50 1014.37 1014.25 1014.56
1013.98 1014.21 1014.51 1014.96 1015.12 1015.46 1015.69 1015.85 1016.03 1016.14 1016.27 1016.53 1016.75 1016.99 1017.09 1017.20 1017.21 1017.23 1017.22 1017.29 1017.16 1017.08 1016.92 1016.75 1016.64 1016.51 1016.36 1016.12 1015.87 1015.68 1015.41 1015.13 1014.83 1014.73 1014.49 1014.05 1013.66 1013.48 1013.65 1014.01 1014.59 1014.19 1014.28
1014.11 1014.39 1014.71 1015.05 1015.35 1015.68 1015.90 1016.13 1016.29 1016.51 1016.78 1016.90 1017.05 1017.23 1017.26 1017.29 1017.43 1017.38 1017.33 1017.42 1017.31 1017.20 1017.06 1016.95 1016.78 1016.65 1016.44 1016.20 1016.05 1015.72 1015.48 1015.14 1014.86 1014.52 1014.45 1014.08 1013.57 1013.59 1014.45 1015.35 1015.42 1014.64 1014.11
1013.92 1014.49 1014.89 1015.23 1015.59 1015.95 1016.20 1016.39 1016.66 1016.70 1016.89 1017.09 1017.18 1017.36 1017.50 1017.49 1017.55 1017.49 1017.39 1017.54 1017.48 1017.36 1017.16 1017.06 1016.83 1016.60 1016.46 1016.24 1016.03 1015.67 1015.44 1015.11 1014.81 1014.64 1014.60 1014.19 1013.91 1013.97 1014.03 1013.63 1015.05 1014.75 1014.33
1013.91 1014.46 1015.09 1015.44 1015.78 1016.20 1016.40 1016.62 1016.82 1016.89 1017.04 1017.14 1017.31 1017.55 1017.61 1017.66 1017.62 1017.64 1017.48 1017.48 1017.48 1017.29 1017.23 1017.10 1016.77 1016.53 1016.41 1016.24 1015.91 1015.59 1015.30 1014.98 1014.90 1014.67 1014.39 1014.02 1013.97 1013.99 1014.18 1013.99 1013.98 1013.95 1013.91
1013.81 1014.43 1015.09 1015.59 1015.98 1016.35 1016.56 1016.72 1016.87 1016.98 1017.11 1017.16 1017.20 1017.30 1017.52 1017.63 1017.62 1017.59 1017.51 1017.48 1017.39 1017.24 1017.24 1016.97 1016.56 1016.38 1016.36 1016.09 1015.77 1015.39 1015.05 1015.06 1014.93 1014.56 1013.72 1013.42 1013.75 1013.95 1013.90 1014.06 1013.74 1013.59 1013.48
1013.74 1014.32 1014.82 1015.32 1015.75 1016.04 1016.49 1016.65 1016.85 1017.03 1017.20 1017.21 1017.20 1017.28 1017.49 1017.76 1017.51 1017.52 1017.48 1017.51 1017.48 1017.20 1017.02 1016.88 1016.58 1016.49 1016.35 1016.11 1015.67 1015.33 1015.05 1015.08 1014.95 1014.53 1013.84 1013.57 1013.76 1013.91 1014.07 1014.19 1013.82 1013.65 1013.59
1013.32 1014.18 1014.68 1014.85 1015.03 1015.56 1015.90 1016.43 1016.84 1016.95 1017.17 1017.37 1017.61 1017.58 1017.72 1017.73 1017.61 1017.64 1017.60 1017.47 1017.41 1017.30 1017.12 1017.02 1016.85 1016.51 1016.31 1016.17 1015.94 1015.72 1015.49 1015.15 1014.99 1014.89 1014.51 1014.16 1014.09 1014.14 1014.13 1013.98 1013.79 1013.83 1013.70
1012.64 1013.51 1014.13 1014.52 1014.70 1014.92 1015.46 1016.39 1016.80 1016.97 1017.32 1017.55 1017.74 1017.92 1017.96 1017.93 1017.90 1017.90 1017.79 1017.85 1017.78 1017.72 1017.64 1017.38 1017.03 1016.75 1016.50 1016.39 1016.32 1016.03 1015.72 1015.51 1015.50 1015.41 1015.10 1015.00 1014.85 1014.64 1014.42 1014.18 1013.88 1013.76 1013.81
1012.54 1013.25 1013.72 1014.18 1014.61 1014.47 1015.20 1015.88 1016.44 1016.80 1017.38 1017.83 1018.02 1018.18 1018.33 1018.26 1018.17 1018.19 1018.08 1018.13 1018.13 1017.98 1017.78 1017.64 1017.33 1017.00 1016.92 1016.66 1016.46 1016.35 1016.22 1016.17 1016.03 1015.85 1015.67 1015.28 1015.14 1014.82 1014.40 1014.24 1014.03 1013.84 1013.75
1012.53 1013.30 1013.65 1014.20 1014.59 1014.67 1015.17 1015.83 1016.31 1016.85 1017.51 1018.07 1018.31 1018.42 1018.38 1018.33 1018.41 1018.31 1018.29 1018.25 1018.24 1018.15 1017.94 1017.81 1017.60 1017.43 1017.27 1017.03 1016.89 1016.79 1016.65 1016.67 1016.53 1016.40 1016.37 1015.82 1015.64 1015.19 1014.89 1014.50 1014.21 1013.86 1014.01
1012.55 1013.30 1013.55 1014.03 1014.34 1014.53 1015.29 1015.74 1016.44 1016.75 1017.35 1017.94 1018.51 1018.63 1018.43 1018.36 1018.44 1018.46 1018.55 1018.50 1018.49 1018.45 1018.20 1018.00 1017.92 1017.82 1017.58 1017.34 1017.23 1017.12 1017.05 1017.16 1017.14 1017.06 1017.00 1016.58 1015.90 1015.93 1015.54 1015.27 1014.91 1014.68 1015.02
1012.78 1013.54 1013.86 1013.89 1014.16 1014.88 1015.68 1015.97 1016.31 1016.93 1017.31 1017.84 1018.50 1018.74 1018.56 1018.30 1018.42 1018.60 1018.72 1018.88 1018.85 1018.68 1018.42 1018.25 1018.15 1017.93 1017.94 1017.51 1017.65 1017.53 1017.42 1017.49 1017.60 1017.60 1017.55 1017.40 1017.32 1016.84 1016.38 1016.23 1016.11 1016.02 1015.81
1012.63 1013.51 1013.86 1014.01 1014.56 1015.42 1015.97 1016.15 1016.34 1016.84 1017.41 1017.62 1018.42 1018.77 1018.66 1018.30 1018.44 1018.61 1018.81 1019.13 1019.16 1019.08 1018.86 1018.92 1018.83 1018.47 1018.47 1018.32 1018.10 1017.92 1017.75 1017.86 1017.91 1017.93 1018.00 1018.01 1017.92 1017.83 1017.42 1017.14 1016.80 1016.66 1016.67
1012.14 1012.88 1013.69 1014.34 1014.82 1015.60 1016.01 1016.28 1016.45 1017.08 1017.44 1017.77 1018.42 1018.79 1018.65 1018.40 1018.46 1018.65 1018.99 1019.37 1019.37 1019.45 1019.46 1019.48 1019.19 1019.03 1018.79 1018.60 1018.36 1018.25 1018.21 1018.21 1018.09 1018.04 1018.00 1018.30 1018.36 1018.38 1018.34 1017.94 1017.81 1017.57 1017.39
1012.19 1012.62 1013.47 1014.37 1015.10 1015.64 1016.23 1016.43 1016.78 1017.23 1017.76 1018.08 1018.58 1018.83 1018.72 1018.58 1018.61 1018.96 1019.36 1019.51 1019.63 1019.75 1019.94 1019.88 1019.67 1019.27 1019.12 1018.81 1018.70 1018.61 1018.50 1018.41 1018.37 1018.42 1018.30 1018.17 1018.38 1018.70 1018.96 1018.74 1018.69 1018.41 1018.32
1012.29 1012.56 1013.15 1014.20 1015.09 1015.62 1016.15 1016.56 1017.15 1017.67 1018.12 1018.62 1018.75 1018.73 1018.67 1018.78 1018.95 1019.39 1019.57 1019.69 1019.89 1020.12 1020.40 1020.35 1019.98 1019.84 1019.63 1019.13 1019.01 1018.87 1018.77 1018.78 1018.94 1018.68 1018.51 1018.60 1018.65 1018.70 1018.93 1018.88 1018.86 1018.82 1018.71
1011.74 1012.40 1013.29 1014.15 1015.05 1015.51 1015.83 1016.33 1016.87 1017.48 1018.11 1018.58 1018.75 1018.85 1018.90 1019.01 1019.33 1019.58 1019.87 1020.04 1020.11 1020.43 1020.67 1020.60 1020.45 1020.54 1020.35 1019.82 1019.91 1020.02 1019.95 1019.66 1019.36 1019.33 1019.00 1018.95 1018.97 1018.72 1018.70 1018.76 1018.74 1019.02 1019.18
1011.23 1012.01 1013.17 1014.26 1015.14 1015.55 1015.87 1016.32 1016.94 1017.58 1018.32 1018.81 1019.13 1019.22 1019.15 1019.15 1019.57 1019.84 1019.94 1020.13 1020.22 1020.50 1020.95 1020.90 1020.79 1020.80 1021.01 1020.37 1020.03 1020.28 1020.69 1020.96 1020.58 1020.01 1019.53 1019.38 1019.18 1019.29 1019.01 1018.80 1018.76 1019.00 1019.32
1011.35 1012.46 1013.07 1013.83 1014.91 1015.66 1016.23 1016.80 1017.16 1017.45 1018.09 1018.62 1019.04 1019.19 1019.39 1019.34 1019.71 1019.89 1020.03 1020.27 1020.49 1020.70 1020.83 1020.95 1020.93 1021.06 1021.15 1021.51 1020.77 1020.48 1020.60 1021.00 1021.17 1021.41 1020.67 1020.28 1019.68 1019.45 1019.29 1018.94 1018.91 1019.17 1019.33
1011.03 1012.05 1013.09 1013.70 1014.61 1015.42 1016.18 1016.57 1017.39 1017.85 1018.05 1018.26 1018.91 1019.11 1019.36 1019.57 1019.80 1019.82 1020.19 1020.45 1020.64 1020.75 1020.84 1021.08 1021.20 1021.38 1021.58 1021.77 1021.87 1021.63 1021.26 1021.02 1021.25 1021.75 1021.94 1021.03 1020.60 1020.05 1019.85 1019.22 1018.88 1019.26 1019.38
1012.80 1011.78 1012.76 1014.21 1014.96 1015.53 1016.05 1016.67 1017.50 1018.14 1018.44 1018.80 1019.09 1019.30 1019.42 1019.68 1019.89 1019.91 1020.18 1020.30 1020.44 1020.75 1021.00 1021.19 1021.25 1021.50 1021.74 1021.83 1021.79 1021.80 1021.89 1021.83 1021.87 1021.92 1022.09 1021.65 1021.29 1020.42 1020.03 1019.64 1019.45 1019.46 1019.64
Thickness
5767 5770 5771 5771 5770 5769 5768 5767 5765 5765 5764 5763 5761 5761 5760 5759 5758 5758 5757 5757 5757 5755 5755 5757 5757 5756 5755 5756 5757 5757 5756 5756 5756 5757 5757 5757 5754 5753 5756 5757 5758 5758 5758
5773 5769 5771 5770 5769 5768 5767 5764 5763 5762 5761 5759 5757 5756 5756 5754 5753 5753 5753 5753 5753 5752 5752 5751 5751 5752 5751 5751 5752 5753 5753 5753 5753 5754 5754 5755 5755 5754 5752 5752 5755 5754 5753
5771 5771 5769 5767 5768 5766 5763 5761 5758 5758 5758 5755 5754 5752 5751 5750 5750 5749 5749 5749 5748 5748 5748 5748 5748 5748 5747 5748 5748 5748 5749 5750 5750 5751 5751 5752 5753 5753 5750 5748 5748 5751 5750
5774 5770 5768 5765 5765 5762 5759 5757 5756 5754 5754 5753 5751 5749 5748 5748 5747 5746 5744 5744 5745 5745 5745 5745 5744 5745 5745 5744 5745 5744 5746 5746 5747 5748 5748 5749 5751 5754 5750 5748 5748 5747 5748
5771 5769 5767 5764 5762 5760 5756 5754 5753 5752 5752 5750 5749 5745 5744 5743 5742 5741 5741 5739 5739 5738 5739 5738 5738 5739 5740 5740 5741 5742 5742 5743 5743 5745 5744 5747 5750 5754 5748 5743 5745 5745 5743
5770 5768 5765 5761 5761 5757 5754 5752 5752 5750 5750 5747 5744 5741 5740 5738 5739 5738 5737 5735 5735 5734 5734 5734 5734 5735 5735 5736 5736 5736 5738 5739 5740 5740 5740 5744 5748 5749 5745 5739 5733 5735 5736
5770 5766 5763 5760 5757 5753 5751 5749 5748 5746 5743 5741 5740 5738 5737 5736 5734 5734 5733 5730 5731 5730 5730 5730 5730 5729 5730 5731 5730 5732 5733 5734 5734 5736 5734 5738 5742 5741 5732 5721 5714 5723 5731
5769 5763 5759 5757 5753 5749 5748 5747 5744 5743 5742 5740 5738 5735 5733 5732 5730 5730 5730 5727 5726 5725 5726 5724 5725 5725 5725 5725 5726 5728 5728 5729 5729 5729 5726 5731 5734 5731 5728 5731 5708 5714 5726
5767 5763 5757 5754 5751 5747 5746 5744 5742 5742 5739 5738 5735 5732 5730 5727 5727 5726 5727 5724 5722 5722 5720 5719 5720 5721 5719 5719 5721 5722 5722 5722 5722 5721 5721 5728 5727 5724 5721 5720 5717 5723 5723
5766 5760 5756 5752 5749 5745 5744 5742 5740 5739 5737 5735 5733 5731 5728 5726 5724 5722 5722 5718 5718 5717 5715 5716 5718 5717 5713 5713 5714 5716 5717 5714 5715 5714 5718 5724 5720 5716 5714 5710 5711 5714 5718
5764 5759 5756 5752 5748 5746 5742 5740 5738 5736 5733 5731 5731 5728 5725 5723 5724 5722 5719 5716 5713 5712 5712 5710 5710 5708 5707 5707 5709 5709 5709 5707 5706 5705 5711 5712 5708 5708 5706 5703 5703 5703 5703
5762 5758 5757 5752 5750 5746 5742 5739 5735 5734 5731 5728 5724 5725 5722 5720 5718 5716 5714 5712 5710 5708 5706 5705 5704 5704 5703 5702 5701 5699 5699 5700 5697 5693 5694 5696 5697 5696 5695 5695 5695 5692 5692
5773 5761 5759 5756 5750 5747 5743 5736 5731 5731 5727 5723 5721 5718 5716 5715 5713 5711 5710 5707 5704 5701 5699 5698 5698 5697 5697 5695 5692 5691 5689 5688 5684 5679 5680 5681 5680 5681 5682 5682 5684 5683 5681
5768 5763 5759 5754 5750 5748 5742 5738 5733 5730 5726 5718 5716 5712 5710 5710 5710 5707 5704 5701 5698 5695 5694 5692 5691 5690 5688 5685 5683 5680 5679 5675 5672 5669 5669 5668 5667 5667 5669 5669 5670 5671 5671
5760 5755 5753 5749 5745 5743 5739 5735 5729 5724 5719 5713 5708 5706 5706 5706 5705 5702 5698 5696 5693 5689 5688 5686 5684 5682 5678 5676 5673 5670 5667 5663 5660 5657 5653 5655 5654 5655 5654 5655 5658 5660 5658
5761 5753 5750 5747 5743 5741 5735 5729 5721 5718 5714 5709 5703 5700 5701 5702 5700 5697 5693 5691 5688 5683 5681 5679 5676 5671 5669 5667 5663 5659 5655 5650 5646 5643 5640 5641 5642 5640 5639 5639 5641 5642 5640
5759 5753 5747 5745 5742 5735 5728 5721 5714 5708 5707 5705 5698 5695 5696 5698 5695 5692 5688 5684 5680 5676 5674 5671 5667 5664 5660 5658 5653 5649 5644 5638 5633 5630 5627 5626 5624 5623 5624 5622 5621 5620 5623
5761 5751 5748 5745 5739 5731 5723 5716 5709 5704 5700 5703 5697 5694 5692 5694 5691 5687 5684 5677 5673 5668 5665 5660 5656 5654 5648 5645 5641 5637 5633 5627 5621 5618 5616 5614 5611 5608 5608 5608 5607 5606 5606
5762 5757 5748 5741 5735 5726 5721 5714 5708 5704 5701 5699 5695 5691 5689 5689 5687 5681 5678 5670 5666 5660 5655 5650 5647 5643 5639 5635 5633 5626 5621 5617 5612 5610 5609 5605 5602 5598 5596 5595 5593 5591 5592
5759 5756 5748 5739 5731 5724 5718 5715 5709 5706 5699 5696 5691 5688 5686 5682 5682 5676 5671 5664 5657 5652 5646 5641 5638 5636 5630 5627 5623 5616 5610 5608 5605 5602 5600 5599 5595 5589 5586 5584 5582 5580 5578
5755 5751 5747 5737 5728 5721 5715 5711 5705 5701 5696 5690 5687 5684 5681 5677 5673 5669 5664 5659 5650 5643 5636 5632 5630 5626 5620 5617 5611 5605 5602 5599 5594 5593 5592 5590 5587 5584 5581 5578 5575 5572 5571
5755 5749 5743 5735 5726 5719 5715 5711 5707 5701 5694 5687 5682 5678 5674 5672 5666 5661 5656 5650 5643 5635 5628 5623 5619 5614 5608 5605 5596 5588 5580 5584 5586 5581 5582 5581 5579 5578 5576 5573 5571 5569 5565
5758 5750 5741 5732 5723 5717 5713 5706 5700 5696 5688 5682 5675 5672 5671 5666 5660 5655 5649 5643 5637 5628 5619 5615 5609 5605 5595 5595 5590 5581 5570 5565 5567 5570 5572 5571 5572 5569 5566 5565 5564 5561 5557
5751 5745 5738 5734 5723 5714 5706 5697 5694 5691 5685 5679 5673 5668 5664 5661 5655 5649 5643 5636 5629 5623 5616 5609 5603 5595 5588 5578 5578 5576 5569 5561 5553 5549 5555 5557 5560 5561 5558 5559 5557 5553 5549
5752 5743 5736 5730 5722 5714 5703 5699 5691 5686 5683 5678 5670 5665 5662 5656 5650 5644 5636 5630 5624 5617 5610 5602 5595 5586 5577 5570 5562 5559 5559 5556 5550 5540 5536 5541 5545 5548 5549 5551 5550 5545 5542
5734 5745 5737 5723 5715 5710 5702 5696 5687 5680 5675 5670 5664 5660 5655 5649 5645 5639 5631 5626 5620 5612 5604 5596 5588 5579 5571 5563 5558 5553 5548 5545 5540 5534 5529 5530 5529 5536 5537 5539 5538 5535 5531